Location: Minneapolis
(45.0000°N, 93.0000°W)
Time: 19:30:38
(UTC-05:00)

Vanguard 2 - All Passes

Search period start: 17 June 2018 00:00
Search period end: 27 June 2018 00:00
Orbit: 553 x 2939 km, 32.9° (Epoch: 17 June)

Date Brightness Start Highest point End Pass type
(mag) Time Alt. Az. Time Alt. Az. Time Alt. Az.
17 Jun - 05:59:17 10° S 06:00:19 11° SSE 06:01:19 10° SSE daylight
17 Jun - 08:05:19 10° SW 08:07:47 16° S 08:10:19 10° SE daylight
17 Jun - 10:13:37 10° SW 10:15:18 12° SSW 10:17:10 10° SSE daylight
18 Jun - 06:15:54 10° SSW 06:18:08 13° S 06:20:12 10° SE daylight
18 Jun - 08:23:15 10° SW 08:25:36 15° S 08:28:01 10° SSE daylight
19 Jun - 06:33:16 10° SW 06:35:59 16° S 06:38:26 10° SE daylight
19 Jun - 08:41:26 10° SW 08:43:24 13° S 08:45:27 10° SSE daylight
20 Jun - 04:43:35 10° SSW 04:46:09 13° SSE 04:48:23 10° SE visible
20 Jun - 06:50:55 10° SW 06:53:48 17° S 06:56:25 10° SE daylight
20 Jun - 09:00:11 10° SSW 09:01:13 11° SSW 09:02:14 10° S daylight
21 Jun - 05:00:30 10° SSW 05:04:02 16° S 05:06:58 10° SE daylight
21 Jun - 07:08:48 10° SW 07:11:37 16° S 07:14:12 10° SE daylight
22 Jun - 03:10:54 10° S 03:13:52 13° SSE 03:16:25 10° SE visible
22 Jun - 05:17:52 10° SW 05:21:55 19° S 05:25:09 10° SE daylight
22 Jun - 07:26:52 10° SW 07:29:24 15° SSW 07:31:45 10° SSE daylight
23 Jun - 03:27:10 10° SSW 03:31:49 17° SSE 03:35:27 10° SE visible
23 Jun - 05:35:31 10° SW 05:39:46 21° S 05:43:08 10° SE daylight
23 Jun - 07:45:16 10° SW 07:47:09 13° SSW 07:48:56 10° S daylight
24 Jun - 01:38:39 10° S 01:41:11 11° SSE 01:43:26 10° SE visible
24 Jun - 03:44:10 10° SW 03:49:45 21° S 03:53:53 10° SE visible
24 Jun - 05:53:21 10° SW 05:57:36 21° S 06:00:58 10° SE daylight
25 Jun - 01:53:41 10° SSW 01:59:09 16° SSE 02:03:28 10° SE visible
25 Jun - 04:01:33 10° SW 04:07:40 24° S 04:12:02 10° ESE visible
25 Jun - 06:11:20 10° WSW 06:15:24 20° SSW 06:18:39 10° SE daylight
26 Jun - 02:10:05 10° SSW 02:17:08 21° SSE 02:22:17 10° ESE visible
26 Jun - 04:19:11 10° SW 04:25:34 26° S 04:30:02 10° SE visible
26 Jun - 06:29:31 10° WSW 06:33:09 18° SSW 06:36:08 10° SSE daylight
